TimeMST,TemperatureF,Dew PointF,Humidity,Sea Level PressureIn,VisibilityMPH,Wind Direction,Wind SpeedMPH,Gust SpeedMPH,PrecipitationIn,Events,Conditions,WindDirDegrees,DateUTC
12:56 AM,19.9,6.1,55,30.11,-9999.0,West,9.2,-,N/A,,Unknown,270,2013-01-04 07:56:00
1:56 AM,17.1,6.1,62,30.11,-9999.0,West,11.5,-,N/A,,Unknown,280,2013-01-04 08:56:00
2:56 AM,18.0,6.1,60,30.10,-9999.0,WNW,11.5,-,N/A,,Unknown,290,2013-01-04 09:56:00
3:56 AM,19.0,6.1,57,30.11,-9999.0,WNW,10.4,-,N/A,,Unknown,290,2013-01-04 10:56:00
4:56 AM,17.1,5.0,59,30.12,-9999.0,West,10.4,-,N/A,,Unknown,280,2013-01-04 11:56:00
5:56 AM,16.0,5.0,62,30.13,-9999.0,West,8.1,-,N/A,,Unknown,270,2013-01-04 12:56:00
6:56 AM,18.0,6.1,60,30.12,-9999.0,West,3.5,-,N/A,,Unknown,280,2013-01-04 13:56:00
7:56 AM,21.0,6.1,53,30.10,-9999.0,WNW,5.8,-,N/A,,Unknown,290,2013-01-04 14:56:00
8:56 AM,16.0,5.0,62,30.12,-9999.0,SW,3.5,-,N/A,,Unknown,230,2013-01-04 15:56:00
9:56 AM,19.0,6.1,57,30.13,-9999.0,SW,4.6,-,N/A,,Unknown,220,2013-01-04 16:56:00
10:56 AM,27.0,10.0,49,30.11,-9999.0,Calm,Calm,-,N/A,,Unknown,0,2013-01-04 17:56:00
11:56 AM,28.9,12.9,51,30.07,-9999.0,Calm,Calm,-,N/A,,Unknown,0,2013-01-04 18:56:00
12:56 PM,34.0,15.1,46,30.05,-9999.0,WNW,9.2,-,N/A,,Unknown,290,2013-01-04 19:56:00
1:56 PM,35.1,19.0,52,30.04,-9999.0,West,9.2,-,N/A,,Unknown,270,2013-01-04 20:56:00
2:56 PM,35.1,19.9,54,30.04,-9999.0,West,5.8,-,N/A,,Unknown,270,2013-01-04 21:56:00
3:56 PM,32.0,18.0,56,30.06,-9999.0,WSW,8.1,-,N/A,,Unknown,250,2013-01-04 22:56:00
4:56 PM,27.0,15.1,61,30.08,-9999.0,West,9.2,-,N/A,,Unknown,280,2013-01-04 23:56:00
5:56 PM,25.0,12.9,60,30.09,-9999.0,West,12.7,-,N/A,,Unknown,280,2013-01-05 00:56:00
6:56 PM,23.0,10.9,60,30.08,-9999.0,West,10.4,-,N/A,,Unknown,280,2013-01-05 01:56:00
7:56 PM,25.0,10.9,55,30.06,-9999.0,West,8.1,-,N/A,,Unknown,270,2013-01-05 02:56:00
8:56 PM,24.1,10.9,57,30.07,-9999.0,WSW,8.1,-,N/A,,Unknown,250,2013-01-05 03:56:00
9:56 PM,24.1,12.9,62,30.06,-9999.0,West,12.7,-,N/A,,Unknown,270,2013-01-05 04:56:00
10:56 PM,23.0,12.9,65,30.04,-9999.0,West,8.1,-,N/A,,Unknown,260,2013-01-05 05:56:00
11:56 PM,23.0,12.9,65,30.03,-9999.0,WSW,10.4,-,N/A,,Unknown,250,2013-01-05 06:56:00